Location: Fxbg
(38.3018°N, 77.4708°W)
Time: 11:19:43
(UTC-05:00)

ISS - Visible Passes

Search period start: 23 February 2017 00:00
Search period end: 05 March 2017 00:00
Orbit: 399 x 408 km, 51.6° (Epoch: 24 February)

Date Brightness Start Highest point End Pass type
(mag) Time Alt. Az. Time Alt. Az. Time Alt. Az.
27 Feb -0.6 06:13:46 10° S 06:16:19 21° SE 06:18:52 10° E visible
28 Feb 0.0 05:23:17 10° SE 05:23:58 10° SE 05:24:38 10° ESE visible
01 Mar -2.6 06:04:13 10° SW 06:07:25 54° SE 06:10:40 10° ENE visible
02 Mar -1.3 05:12:36 13° S 05:14:57 26° SE 05:17:45 10° ENE visible
03 Mar -0.3 04:22:48 13° ESE 04:22:48 13° ESE 04:24:11 10° E visible
03 Mar -3.2 05:55:28 10° WSW 05:58:38 57° NW 06:01:54 10° NE visible
04 Mar -3.2 05:05:27 54° SSW 05:06:01 70° SE 05:09:18 10° NE visible
